Location: Clegg Observatory
(38.9178°N, 78.6069°W)
Time: 13:20:27
(UTC-04:00)

Cosmos 1151 Rocket - Visible Passes

Search period start: 29 March 2015 00:00
Search period end: 08 April 2015 00:00
Orbit: 593 x 618 km, 82.5° (Epoch: 28 March)

Date Brightness Start Highest point End Pass type
(mag) Time Alt. Az. Time Alt. Az. Time Alt. Az.
29 Mar 4.9 20:07:57 10° ESE 20:09:25 12° E 20:11:09 10° ENE visible
29 Mar 3.8 21:43:19 16° SSW 21:46:37 50° W 21:50:50 10° N visible
30 Mar 4.3 20:19:16 10° SE 20:22:23 20° E 20:25:38 10° NE visible
30 Mar 4.9 21:56:02 10° SW 21:59:51 29° WNW 22:03:36 10° NNW visible
31 Mar 3.6 20:31:31 10° SSE 20:35:24 34° E 20:39:19 10° NNE visible
31 Mar 5.7 22:10:09 10° WSW 22:13:10 18° WNW 22:16:01 10° NNW visible
01 Apr 3.0 20:44:12 10° S 20:48:27 61° E 20:52:41 10° NNE visible
01 Apr 6.3 22:25:40 10° W 22:26:34 10° WNW 22:27:11 10° WNW visible
02 Apr 3.2 20:57:13 10° SSW 21:01:32 76° W 21:05:50 10° N visible
03 Apr 4.3 21:10:36 10° SSW 21:14:42 42° WNW 21:18:47 10° N visible
04 Apr 5.4 21:24:21 10° SW 21:27:56 25° WNW 21:31:28 10° NNW visible
05 Apr 6.2 21:38:42 10° WSW 21:41:17 15° WNW 21:43:42 10° NW visible
06 Apr 2.9 20:12:11 10° S 20:16:28 73° E 20:20:44 10° NNE visible
07 Apr 6.4 06:21:36 10° NE 06:24:04 15° ENE 06:26:43 10° ESE visible
07 Apr 3.6 20:25:19 10° SSW 20:29:34 63° W 20:33:49 10° N visible
